Flag for Croatia Weather past 2 weeks in Dubrovnik, Croatia

Now
66 °F

Passing clouds.


Feels Like: 66 °F
Forecast: 56 / 64 °F
Wind: 9 mph from South

Location: Dubrovnik / Cilipi

Current Time: May 23, 2015 at 5:03:07 PM

Latest Report: May 23, 2015 at 4:30 PM


Visibility: N/A

Pressure: 29.92 "Hg

Humidity: 60%

Dew point: 52 °F

Location of DubrovnikLocation

Historic Weather in Dubrovnik — Graph

°F

Dubrovnik temperature yesterday

Maximum temperature yesterday: 70 °F (at 12:30 PM)
Minimum temperature yesterday: 57 °F (at 6:30 PM)
Average temperature yesterday: 63 °F

Past Weeks' High & Low Weather Summary

 TemperatureHumidityPressure
High81 °F (May 17, 11:00 AM)100% (May 22, 6:30 PM)30.24 "Hg (May 22, 6:30 PM)
Low54 °F (May 13, 5:30 AM)17% (May 11, 4:00 PM)29.77 "Hg (May 22, 4:00 PM)
Average69 °F56%29.98 "Hg
* Reported May 8 4:00 PM — May 23 4:00 PM, Dubrovnik, Weather by CustomWeather, © 2015

Note: Actual official high and low records may vary slightly from our data, if they occured in-between our weather recording intervals... More about our weather records

Advertising

Dubrovnik weather history for previous 24 hours

 ConditionsComfort  
Time TempWeatherWind HumidityBarometerVisibility
4:00 PM
Sat, May 23
68 °FPassing clouds.9 mph46%29.92 "HgN/A
3:30 PM66 °FPassing clouds.10 mph68%29.92 "HgN/A
3:00 PM68 °FPassing clouds.10 mph64%29.92 "HgN/A
2:30 PM66 °FPassing clouds.12 mph68%29.92 "HgN/A
2:00 PM66 °FPassing clouds.10 mph64%29.92 "HgN/A
1:30 PM66 °FPassing clouds.12 mph64%29.92 "HgN/A
1:00 PM66 °FPassing clouds.12 mph64%29.92 "HgN/A
12:30 PM66 °FPassing clouds.13 mph60%29.92 "HgN/A
12:00 PM66 °FPassing clouds.13 mph68%29.92 "HgN/A
11:30 AM66 °FPassing clouds.12 mph64%29.92 "HgN/A
11:00 AM66 °FPassing clouds.12 mph64%29.92 "HgN/A
10:30 AM64 °FScattered clouds.10 mph78%29.92 "HgN/A
10:00 AM64 °FScattered clouds.12 mph68%29.92 "HgN/A
9:30 AM63 °FScattered clouds.13 mph83%29.92 "HgN/A
9:00 AM61 °FScattered clouds.13 mph88%29.89 "HgN/A
8:30 AM59 °FScattered clouds.12 mph88%29.89 "HgN/A
8:00 AM61 °FScattered clouds.12 mph88%29.89 "HgN/A
7:30 AM59 °FScattered clouds.9 mph88%29.89 "HgN/A
7:00 AM55 °FScattered clouds.8 mph94%29.86 "HgN/A
6:30 AM55 °FBroken clouds.12 mph94%29.86 "HgN/A
6:00 AM55 °FLight rain. Passing clouds.8 mph94%29.86 "HgN/A
5:30 AM55 °FPartly cloudy.9 mph88%29.86 "HgN/A
5:00 AM55 °FPartly cloudy.8 mph94%29.86 "HgN/A
4:30 AM55 °FPartly cloudy.9 mph94%29.86 "HgN/A
4:00 AM55 °FPartly cloudy.6 mph94%29.86 "HgN/A
3:30 AM55 °FPartly cloudy.7 mph94%29.86 "HgN/A
3:00 AM57 °FPartly cloudy.6 mph88%29.86 "HgN/A
2:30 AM55 °FPassing clouds.7 mph94%29.86 "HgN/A
2:00 AM55 °FPassing clouds.6 mph94%29.86 "HgN/A
1:30 AM55 °FPassing clouds.8 mph94%29.86 "HgN/A
1:00 AM57 °FPassing clouds.7 mph94%29.86 "HgN/A
12:30 AM57 °FPassing clouds.5 mph94%29.86 "HgN/A
12:00 AM57 °FPassing clouds.5 mph94%29.86 "HgN/A
11:30 PM
Fri, May 22
57 °FPassing clouds.3 mph94%29.86 "HgN/A
11:00 PM57 °FPassing clouds.5 mph94%29.86 "HgN/A
10:30 PM59 °FPassing clouds.5 mph82%29.83 "HgN/A
10:00 PM57 °FPassing clouds.7 mph88%29.83 "HgN/A
9:30 PM57 °FLight rain. Passing clouds.8 mph94%29.83 "HgN/A
9:00 PM57 °FLight rain. Scattered clouds.10 mph100%29.83 "HgN/A
8:30 PM57 °FRain. Scattered clouds.7 mph100%29.83 "Hg5 mi
8:00 PM57 °FLight rain. Broken clouds.8 mph100%29.80 "HgN/A
7:30 PM57 °FThundershowers. Scattered clouds.9 mph100%29.80 "Hg6 mi
7:00 PM59 °FLight rain. Partly sunny.10 mph94%29.80 "HgN/A
6:30 PM57 °FPartly sunny.9 mph100%29.80 "HgN/A
6:00 PM59 °FLight rain. Partly sunny.15 mph94%29.80 "Hg4 mi
5:30 PM59 °FLight rain. Broken clouds.14 mph94%29.80 "HgN/A
5:00 PM61 °FLight rain. Broken clouds.16 mph88%29.80 "HgN/A
Weather by CustomWeather, © 2015

See weather overviewHow to use our weather pages